Time,TemperatureF,DewpointF,PressureIn,WindDirection,WindDirectionDegrees,WindSpeedMPH,WindSpeedGustMPH,Humidity,HourlyPrecipIn,Conditions,Clouds,dailyrainin,SoftwareType,DateUTC
2015-07-05 00:04:00,66.2,47.6,0.00,South,182,0.0,0.0,51,0.00,,,0.00,VWS V13.01,2015-07-05 05:04:00,
2015-07-05 00:09:00,66.2,48.1,0.00,South,182,0.0,0.0,52,0.00,,,0.00,VWS V13.01,2015-07-05 05:09:00,
2015-07-05 00:14:00,66.7,48.6,0.00,South,182,0.0,0.0,52,0.00,,,0.00,VWS V13.01,2015-07-05 05:14:00,
2015-07-05 00:19:00,66.7,48.6,0.00,South,182,0.0,0.0,52,0.00,,,0.00,VWS V13.01,2015-07-05 05:19:00,
2015-07-05 00:24:00,66.6,48.4,0.00,South,182,0.0,0.0,52,0.00,,,0.00,VWS V13.01,2015-07-05 05:24:00,
2015-07-05 00:29:00,66.4,48.2,0.00,South,182,0.0,0.0,52,0.00,,,0.00,VWS V13.01,2015-07-05 05:29:00,
2015-07-05 00:34:00,66.4,48.2,0.00,South,182,0.0,0.0,52,0.00,,,0.00,VWS V13.01,2015-07-05 05:34:00,
2015-07-05 00:39:00,66.6,48.4,0.00,South,182,0.0,0.0,52,0.00,,,0.00,VWS V13.01,2015-07-05 05:39:00,
2015-07-05 00:44:00,66.6,48.9,0.00,South,182,0.0,0.0,53,0.00,,,0.00,VWS V13.01,2015-07-05 05:44:00,
2015-07-05 00:49:00,66.2,48.6,0.00,South,182,0.0,0.0,53,0.00,,,0.00,VWS V13.01,2015-07-05 05:49:00,
2015-07-05 00:54:00,66.0,48.4,0.00,South,182,0.0,0.0,53,0.00,,,0.00,VWS V13.01,2015-07-05 05:54:00,
2015-07-05 00:59:00,66.0,48.4,0.00,South,182,0.0,0.0,53,0.00,,,0.00,VWS V13.01,2015-07-05 05:59:00,
2015-07-05 01:04:00,66.0,48.4,0.00,South,182,0.0,0.0,53,0.00,,,0.00,VWS V13.01,2015-07-05 06:04:00,
2015-07-05 01:09:00,66.0,48.4,0.00,South,182,0.0,0.0,53,0.00,,,0.00,VWS V13.01,2015-07-05 06:09:00,
2015-07-05 01:14:00,65.8,48.2,0.00,South,182,0.0,0.0,53,0.00,,,0.00,VWS V13.01,2015-07-05 06:14:00,
2015-07-05 01:19:00,66.0,48.9,0.00,South,182,0.0,0.0,54,0.00,,,0.00,VWS V13.01,2015-07-05 06:19:00,
2015-07-05 01:24:00,66.6,49.4,0.00,South,182,0.0,0.0,54,0.00,,,0.00,VWS V13.01,2015-07-05 06:24:00,
2015-07-05 01:29:00,66.7,49.6,0.00,South,182,0.0,0.0,54,0.00,,,0.00,VWS V13.01,2015-07-05 06:29:00,
2015-07-05 01:34:00,67.1,50.9,0.00,South,178,5.4,5.4,56,0.00,,,0.00,VWS V13.01,2015-07-05 06:34:00,
2015-07-05 01:39:00,67.5,51.2,0.00,South,190,0.0,0.0,56,0.00,,,0.00,VWS V13.01,2015-07-05 06:39:00,
2015-07-05 01:44:00,67.5,51.2,0.00,South,190,0.0,0.0,56,0.00,,,0.00,VWS V13.01,2015-07-05 06:44:00,
2015-07-05 01:49:00,67.5,51.2,0.00,SSE,150,0.0,0.0,56,0.00,,,0.00,VWS V13.01,2015-07-05 06:49:00,
2015-07-05 01:54:00,67.6,51.9,0.00,SSE,166,0.0,2.7,57,0.00,,,0.00,VWS V13.01,2015-07-05 06:54:00,
2015-07-05 01:59:00,67.8,51.6,0.00,SSE,159,2.7,3.6,56,0.00,,,0.00,VWS V13.01,2015-07-05 06:59:00,
2015-07-05 02:04:00,67.6,51.4,0.00,SSE,159,0.0,0.0,56,0.00,,,0.00,VWS V13.01,2015-07-05 07:04:00,
2015-07-05 02:09:00,67.5,50.8,0.00,SSE,159,0.0,0.0,55,0.00,,,0.00,VWS V13.01,2015-07-05 07:09:00,
2015-07-05 02:14:00,67.1,50.4,0.00,SSE,159,0.0,0.0,55,0.00,,,0.00,VWS V13.01,2015-07-05 07:14:00,
2015-07-05 02:19:00,67.5,51.7,0.00,South,186,5.4,5.4,57,0.00,,,0.00,VWS V13.01,2015-07-05 07:19:00,
2015-07-05 02:24:00,68.0,52.7,0.00,South,170,2.7,2.7,58,0.00,,,0.00,VWS V13.01,2015-07-05 07:24:00,
2015-07-05 02:29:00,68.0,52.2,0.00,SSW,212,2.2,2.7,57,0.00,,,0.00,VWS V13.01,2015-07-05 07:29:00,
2015-07-05 02:34:00,68.0,51.7,0.00,SSW,208,0.0,0.0,56,0.00,,,0.00,VWS V13.01,2015-07-05 07:34:00,
2015-07-05 02:39:00,67.8,51.1,0.00,SSE,152,0.0,2.7,55,0.00,,,0.00,VWS V13.01,2015-07-05 07:39:00,
2015-07-05 02:44:00,67.6,50.4,0.00,SSE,153,0.0,0.0,54,0.00,,,0.00,VWS V13.01,2015-07-05 07:44:00,
2015-07-05 02:49:00,67.5,50.2,0.00,South,175,3.1,3.1,54,0.00,,,0.00,VWS V13.01,2015-07-05 07:49:00,
2015-07-05 02:54:00,67.5,49.8,0.00,SSE,165,3.6,3.6,53,0.00,,,0.00,VWS V13.01,2015-07-05 07:54:00,
2015-07-05 02:59:00,67.5,49.8,0.00,SSW,196,2.2,2.2,53,0.00,,,0.00,VWS V13.01,2015-07-05 07:59:00,
2015-07-05 03:04:00,67.3,49.6,0.00,SW,221,0.0,0.0,53,0.00,,,0.00,VWS V13.01,2015-07-05 08:04:00,
2015-07-05 03:09:00,67.3,50.1,0.00,SW,219,2.7,6.3,54,0.00,,,0.00,VWS V13.01,2015-07-05 08:09:00,
2015-07-05 03:14:00,67.3,50.1,0.00,South,181,2.7,2.7,54,0.00,,,0.00,VWS V13.01,2015-07-05 08:14:00,
2015-07-05 03:19:00,67.1,49.9,0.00,South,182,0.0,0.0,54,0.00,,,0.00,VWS V13.01,2015-07-05 08:19:00,
2015-07-05 03:24:00,66.9,49.2,0.00,SSW,194,0.0,0.0,53,0.00,,,0.00,VWS V13.01,2015-07-05 08:24:00,
2015-07-05 03:29:00,66.7,49.1,0.00,East,96,0.0,0.0,53,0.00,,,0.00,VWS V13.01,2015-07-05 08:29:00,
2015-07-05 03:34:00,66.6,48.9,0.00,South,171,0.0,0.0,53,0.00,,,0.00,VWS V13.01,2015-07-05 08:34:00,
2015-07-05 03:39:00,66.6,49.4,0.00,South,187,3.1,4.0,54,0.00,,,0.00,VWS V13.01,2015-07-05 08:39:00,
2015-07-05 03:44:00,66.7,50.1,0.00,SSW,200,0.0,0.0,55,0.00,,,0.00,VWS V13.01,2015-07-05 08:44:00,
2015-07-05 03:49:00,66.7,50.1,0.00,SSW,200,0.0,0.0,55,0.00,,,0.00,VWS V13.01,2015-07-05 08:49:00,
2015-07-05 03:54:00,66.7,50.1,0.00,South,175,3.1,3.1,55,0.00,,,0.00,VWS V13.01,2015-07-05 08:54:00,
2015-07-05 03:59:00,66.7,50.1,0.00,South,169,0.0,2.2,55,0.00,,,0.00,VWS V13.01,2015-07-05 08:59:00,
2015-07-05 04:04:00,66.6,49.9,0.00,SSE,158,0.0,0.0,55,0.00,,,0.00,VWS V13.01,2015-07-05 09:04:00,
2015-07-05 04:09:00,66.4,49.7,0.00,SSE,158,0.0,0.0,55,0.00,,,0.00,VWS V13.01,2015-07-05 09:09:00,
2015-07-05 04:14:00,66.4,49.7,0.00,SSW,207,0.0,0.0,55,0.00,,,0.00,VWS V13.01,2015-07-05 09:14:00,
2015-07-05 04:19:00,66.2,49.6,0.00,SSW,207,0.0,0.0,55,0.00,,,0.00,VWS V13.01,2015-07-05 09:19:00,
2015-07-05 04:24:00,66.0,49.4,0.00,SSW,207,0.0,0.0,55,0.00,,,0.00,VWS V13.01,2015-07-05 09:24:00,
2015-07-05 04:29:00,65.7,48.6,0.00,SSW,207,0.0,0.0,54,0.00,,,0.00,VWS V13.01,2015-07-05 09:29:00,
2015-07-05 04:34:00,65.5,48.9,0.00,SSW,207,0.0,0.0,55,0.00,,,0.00,VWS V13.01,2015-07-05 09:34:00,
2015-07-05 04:39:00,65.5,48.4,0.00,SSW,207,0.0,0.0,54,0.00,,,0.00,VWS V13.01,2015-07-05 09:39:00,
2015-07-05 04:44:00,65.3,48.2,0.00,SSW,207,0.0,0.0,54,0.00,,,0.00,VWS V13.01,2015-07-05 09:44:00,
2015-07-05 04:49:00,65.1,48.1,0.00,SSW,207,0.0,0.0,54,0.00,,,0.00,VWS V13.01,2015-07-05 09:49:00,
2015-07-05 04:54:00,65.1,48.6,0.00,SE,146,0.0,0.0,55,0.00,,,0.00,VWS V13.01,2015-07-05 09:54:00,
2015-07-05 04:59:00,65.3,48.7,0.00,SSE,149,0.0,0.0,55,0.00,,,0.00,VWS V13.01,2015-07-05 09:59:00,
2015-07-05 05:04:00,65.3,48.7,0.00,South,169,3.6,3.6,55,0.00,,,0.00,VWS V13.01,2015-07-05 10:04:00,
2015-07-05 05:09:00,65.5,49.4,0.00,South,172,0.0,0.0,56,0.00,,,0.00,VWS V13.01,2015-07-05 10:09:00,
2015-07-05 05:14:00,65.7,49.6,0.00,South,180,0.0,0.0,56,0.00,,,0.00,VWS V13.01,2015-07-05 10:14:00,
2015-07-05 05:19:00,65.3,48.7,0.00,South,181,0.0,0.0,55,0.00,,,0.00,VWS V13.01,2015-07-05 10:19:00,
2015-07-05 05:24:00,65.1,48.6,0.00,SSE,158,2.7,3.6,55,0.00,,,0.00,VWS V13.01,2015-07-05 10:24:00,
2015-07-05 05:29:00,64.9,48.4,0.00,SSE,158,0.0,0.0,55,0.00,,,0.00,VWS V13.01,2015-07-05 10:29:00,
2015-07-05 05:34:00,65.1,49.0,0.00,South,178,3.1,5.4,56,0.00,,,0.00,VWS V13.01,2015-07-05 10:34:00,
2015-07-05 05:39:00,65.5,51.2,0.00,SSE,163,4.0,4.0,60,0.00,,,0.00,VWS V13.01,2015-07-05 10:39:00,
2015-07-05 05:45:00,65.5,51.2,0.00,SSE,167,4.0,4.0,60,0.00,,,0.00,VWS V13.01,2015-07-05 10:45:00,
2015-07-05 05:50:00,65.5,50.8,0.00,South,171,4.9,4.9,59,0.00,,,0.00,VWS V13.01,2015-07-05 10:50:00,
2015-07-05 05:54:00,65.3,50.6,0.00,SSE,159,3.6,4.0,59,0.00,,,0.00,VWS V13.01,2015-07-05 10:54:00,
2015-07-05 06:00:00,65.3,49.7,0.00,South,174,3.1,4.9,57,0.00,,,0.00,VWS V13.01,2015-07-05 11:00:00,
2015-07-05 06:05:00,65.1,49.5,0.00,South,176,3.1,3.1,57,0.00,,,0.00,VWS V13.01,2015-07-05 11:05:00,
2015-07-05 06:10:00,65.1,49.5,0.00,South,187,4.9,5.4,57,0.00,,,0.00,VWS V13.01,2015-07-05 11:10:00,
2015-07-05 06:15:00,65.1,50.0,0.00,SSW,192,4.9,6.3,58,0.00,,,0.00,VWS V13.01,2015-07-05 11:15:00,
2015-07-05 06:20:00,65.3,49.7,0.00,South,171,5.4,5.8,57,0.00,,,0.00,VWS V13.01,2015-07-05 11:20:00,
2015-07-05 06:25:00,65.3,49.2,0.00,South,183,3.1,4.9,56,0.00,,,0.00,VWS V13.01,2015-07-05 11:25:00,
2015-07-05 06:30:00,65.3,48.7,0.00,SSW,200,2.2,3.1,55,0.00,,,0.00,VWS V13.01,2015-07-05 11:30:00,
2015-07-05 06:35:00,65.5,48.9,0.00,South,170,5.8,5.8,55,0.00,,,0.00,VWS V13.01,2015-07-05 11:35:00,
2015-07-05 06:40:00,65.7,49.1,0.00,South,171,3.1,3.1,55,0.00,,,0.00,VWS V13.01,2015-07-05 11:40:00,
2015-07-05 06:45:00,65.7,48.6,0.00,SSW,197,3.1,4.0,54,0.00,,,0.00,VWS V13.01,2015-07-05 11:45:00,
2015-07-05 06:50:00,65.7,47.6,0.00,South,182,2.7,3.6,52,0.00,,,0.00,VWS V13.01,2015-07-05 11:50:00,
2015-07-05 06:55:00,65.8,47.7,0.00,SSW,195,3.1,3.1,52,0.00,,,0.00,VWS V13.01,2015-07-05 11:55:00,
2015-07-05 07:00:00,65.8,47.2,0.00,SSW,202,0.0,2.7,51,0.00,,,0.00,VWS V13.01,2015-07-05 12:00:00,
2015-07-05 07:05:00,66.0,47.4,0.00,South,180,3.6,4.9,51,0.00,,,0.00,VWS V13.01,2015-07-05 12:05:00,
2015-07-05 07:10:00,66.0,46.3,0.00,South,174,4.0,5.8,49,0.00,,,0.00,VWS V13.01,2015-07-05 12:10:00,
2015-07-05 07:15:00,66.2,46.5,0.00,South,188,2.7,3.6,49,0.00,,,0.00,VWS V13.01,2015-07-05 12:15:00,
2015-07-05 07:20:00,66.2,46.0,0.00,South,189,3.6,6.3,48,0.00,,,0.00,VWS V13.01,2015-07-05 12:20:00,
2015-07-05 07:25:00,66.4,46.1,0.00,SSW,193,4.9,4.9,48,0.00,,,0.00,VWS V13.01,2015-07-05 12:25:00,
2015-07-05 07:35:00,66.7,45.3,0.00,SSW,194,3.1,6.3,46,0.00,,,0.00,VWS V13.01,2015-07-05 12:35:00,
2015-07-05 07:40:00,66.9,44.9,0.00,South,171,5.4,6.3,45,0.00,,,0.00,VWS V13.01,2015-07-05 12:40:00,
2015-07-05 07:45:00,67.1,45.1,0.00,South,172,5.4,5.8,45,0.00,,,0.00,VWS V13.01,2015-07-05 12:45:00,
2015-07-05 07:50:00,67.5,44.8,0.00,SSW,195,3.6,4.0,44,0.00,,,0.00,VWS V13.01,2015-07-05 12:50:00,
2015-07-05 07:55:00,67.6,45.0,0.00,SSW,201,3.6,4.0,44,0.00,,,0.00,VWS V13.01,2015-07-05 12:55:00,
2015-07-05 08:00:00,67.8,44.5,0.00,SSW,202,4.9,4.9,43,0.00,,,0.00,VWS V13.01,2015-07-05 13:00:00,
2015-07-05 08:05:00,68.0,44.1,0.00,South,187,3.6,5.4,42,0.00,,,0.00,VWS V13.01,2015-07-05 13:05:00,
2015-07-05 08:10:00,68.2,44.2,0.00,South,191,5.4,5.4,42,0.00,,,0.00,VWS V13.01,2015-07-05 13:10:00,
2015-07-05 08:15:00,68.4,43.8,0.00,SSE,163,3.1,4.9,41,0.00,,,0.00,VWS V13.01,2015-07-05 13:15:00,
2015-07-05 08:20:00,68.7,42.8,0.00,South,189,3.1,4.0,39,0.00,,,0.00,VWS V13.01,2015-07-05 13:20:00,
2015-07-05 08:25:00,69.1,43.1,0.00,SSE,158,5.4,6.3,39,0.00,,,0.00,VWS V13.01,2015-07-05 13:25:00,
2015-07-05 08:30:00,69.1,41.7,0.00,South,183,3.6,5.4,37,0.00,,,0.00,VWS V13.01,2015-07-05 13:30:00,
2015-07-05 08:35:00,69.4,42.8,0.00,SW,236,0.0,0.0,38,0.00,,,0.00,VWS V13.01,2015-07-05 13:35:00,
2015-07-05 08:40:00,69.8,41.7,0.00,South,188,5.8,5.8,36,0.00,,,0.00,VWS V13.01,2015-07-05 13:40:00,
2015-07-05 08:45:00,70.0,41.1,0.00,SSW,211,3.1,5.4,35,0.00,,,0.00,VWS V13.01,2015-07-05 13:45:00,
2015-07-05 08:50:00,70.2,41.3,0.00,South,182,5.8,6.3,35,0.00,,,0.00,VWS V13.01,2015-07-05 13:50:00,
2015-07-05 08:55:00,70.2,40.5,0.00,South,170,5.8,5.8,34,0.00,,,0.00,VWS V13.01,2015-07-05 13:55:00,
2015-07-05 09:00:00,70.5,41.6,0.00,SSE,154,3.6,3.6,35,0.00,,,0.00,VWS V13.01,2015-07-05 14:00:00,
2015-07-05 09:05:00,70.9,41.1,0.00,SSW,197,3.1,4.0,34,0.00,,,0.00,VWS V13.01,2015-07-05 14:05:00,
2015-07-05 09:10:00,71.2,41.5,0.00,South,170,5.8,5.8,34,0.00,,,0.00,VWS V13.01,2015-07-05 14:10:00,
2015-07-05 09:15:00,71.8,41.9,0.00,SSW,192,4.0,4.0,34,0.00,,,0.00,VWS V13.01,2015-07-05 14:15:00,
2015-07-05 09:20:00,72.1,41.5,0.00,WSW,246,0.0,5.8,33,0.00,,,0.00,VWS V13.01,2015-07-05 14:20:00,
2015-07-05 09:25:00,72.1,40.7,0.00,South,173,5.4,6.3,32,0.00,,,0.00,VWS V13.01,2015-07-05 14:25:00,
2015-07-05 09:30:00,71.8,41.2,0.00,SW,219,6.3,6.3,33,0.00,,,0.00,VWS V13.01,2015-07-05 14:30:00,
2015-07-05 09:40:00,71.8,41.2,0.00,South,185,3.6,5.4,33,0.00,,,0.00,VWS V13.01,2015-07-05 14:40:00,
2015-07-05 09:45:00,72.1,41.5,0.00,SSE,166,4.9,4.9,33,0.00,,,0.00,VWS V13.01,2015-07-05 14:45:00,
2015-07-05 09:50:00,72.1,40.7,0.00,SSE,166,6.3,6.3,32,0.00,,,0.00,VWS V13.01,2015-07-05 14:50:00,
2015-07-05 09:55:00,72.3,41.6,0.00,South,178,4.0,4.9,33,0.00,,,0.00,VWS V13.01,2015-07-05 14:55:00,
2015-07-05 10:00:00,72.5,41.0,0.00,South,191,4.0,6.3,32,0.00,,,0.00,VWS V13.01,2015-07-05 15:00:00,
2015-07-05 10:05:00,72.7,41.2,0.00,South,189,5.8,8.3,32,0.00,,,0.00,VWS V13.01,2015-07-05 15:05:00,
2015-07-05 10:10:00,72.7,41.2,0.00,South,187,5.4,11.0,32,0.00,,,0.00,VWS V13.01,2015-07-05 15:10:00,
2015-07-05 10:15:00,72.7,41.2,0.00,SSE,148,5.8,5.8,32,0.00,,,0.00,VWS V13.01,2015-07-05 15:15:00,
2015-07-05 10:20:00,73.0,41.5,0.00,South,184,6.7,6.7,32,0.00,,,0.00,VWS V13.01,2015-07-05 15:20:00,
2015-07-05 10:25:00,73.4,41.8,0.00,WSW,240,6.3,6.3,32,0.00,,,0.00,VWS V13.01,2015-07-05 15:25:00,
2015-07-05 10:30:00,73.9,41.4,0.00,South,188,3.1,5.4,31,0.00,,,0.00,VWS V13.01,2015-07-05 15:30:00,
2015-07-05 10:35:00,74.1,41.6,0.00,SSW,203,3.1,3.6,31,0.00,,,0.00,VWS V13.01,2015-07-05 15:35:00,
2015-07-05 10:40:00,74.1,39.9,0.00,South,175,8.7,8.7,29,0.00,,,0.00,VWS V13.01,2015-07-05 15:40:00,
2015-07-05 10:45:00,74.1,40.7,0.00,South,187,3.6,4.9,30,0.00,,,0.00,VWS V13.01,2015-07-05 15:45:00,
2015-07-05 10:50:00,74.3,41.7,0.00,SSE,163,6.3,6.3,31,0.00,,,0.00,VWS V13.01,2015-07-05 15:50:00,
2015-07-05 10:55:00,74.5,40.2,0.00,SSW,207,2.7,5.8,29,0.00,,,0.00,VWS V13.01,2015-07-05 15:55:00,
2015-07-05 11:00:00,75.0,39.7,0.00,South,187,5.4,5.4,28,0.00,,,0.00,VWS V13.01,2015-07-05 16:00:00,
2015-07-05 11:05:00,75.0,38.8,0.00,SSW,194,6.3,6.3,27,0.00,,,0.00,VWS V13.01,2015-07-05 16:05:00,
2015-07-05 11:10:00,75.0,37.8,0.00,SSW,194,7.6,8.3,26,0.00,,,0.00,VWS V13.01,2015-07-05 16:10:00,
2015-07-05 11:15:00,75.6,39.3,0.00,WSW,253,3.1,3.1,27,0.00,,,0.00,VWS V13.01,2015-07-05 16:15:00,
2015-07-05 11:20:00,76.3,37.9,0.00,SSW,197,4.0,6.3,25,0.00,,,0.00,VWS V13.01,2015-07-05 16:20:00,
2015-07-05 11:25:00,76.1,36.7,0.00,SSW,200,6.3,12.3,24,0.00,,,0.00,VWS V13.01,2015-07-05 16:25:00,
2015-07-05 11:30:00,75.9,37.6,0.00,South,186,6.3,7.6,25,0.00,,,0.00,VWS V13.01,2015-07-05 16:30:00,
2015-07-05 11:35:00,76.1,37.8,0.00,SSW,203,6.3,7.6,25,0.00,,,0.00,VWS V13.01,2015-07-05 16:35:00,
2015-07-05 11:40:00,76.1,36.7,0.00,SSW,207,3.1,4.0,24,0.00,,,0.00,VWS V13.01,2015-07-05 16:40:00,
2015-07-05 11:45:00,76.3,36.9,0.00,SSW,193,12.8,12.8,24,0.00,,,0.00,VWS V13.01,2015-07-05 16:45:00,
2015-07-05 11:50:00,76.1,36.7,0.00,South,189,5.8,10.5,24,0.00,,,0.00,VWS V13.01,2015-07-05 16:50:00,
2015-07-05 11:55:00,75.9,35.5,0.00,South,179,10.1,11.0,23,0.00,,,0.00,VWS V13.01,2015-07-05 16:55:00,
2015-07-05 12:00:00,75.9,37.6,0.00,South,178,4.0,8.7,25,0.00,,,0.00,VWS V13.01,2015-07-05 17:00:00,
2015-07-05 12:05:00,76.1,36.7,0.00,South,187,6.3,10.5,24,0.00,,,0.00,VWS V13.01,2015-07-05 17:05:00,
2015-07-05 12:10:00,76.3,35.8,0.00,South,174,7.6,10.1,23,0.00,,,0.00,VWS V13.01,2015-07-05 17:10:00,
2015-07-05 12:15:00,76.3,35.8,0.00,SSW,206,5.4,8.1,23,0.00,,,0.00,VWS V13.01,2015-07-05 17:15:00,
2015-07-05 12:20:00,76.5,36.0,0.00,South,187,4.0,11.0,23,0.00,,,0.00,VWS V13.01,2015-07-05 17:20:00,
2015-07-05 12:25:00,76.5,34.8,0.00,South,174,11.0,15.4,22,0.00,,,0.00,VWS V13.01,2015-07-05 17:25:00,
2015-07-05 12:30:00,76.5,36.0,0.00,South,185,6.7,8.7,23,0.00,,,0.00,VWS V13.01,2015-07-05 17:30:00,
2015-07-05 12:35:00,76.6,36.1,0.00,South,183,5.8,5.8,23,0.00,,,0.00,VWS V13.01,2015-07-05 17:35:00,
2015-07-05 12:40:00,77.0,36.4,0.00,SSE,158,3.1,4.9,23,0.00,,,0.00,VWS V13.01,2015-07-05 17:40:00,
2015-07-05 12:45:00,77.2,35.4,0.00,SSW,200,3.6,8.3,22,0.00,,,0.00,VWS V13.01,2015-07-05 17:45:00,
2015-07-05 12:50:00,77.4,35.6,0.00,SSW,194,5.8,8.1,22,0.00,,,0.00,VWS V13.01,2015-07-05 17:50:00,
2015-07-05 12:55:00,77.0,35.3,0.00,South,186,8.7,10.5,22,0.00,,,0.00,VWS V13.01,2015-07-05 17:55:00,
2015-07-05 13:00:00,76.8,35.1,0.00,South,187,8.3,13.2,22,0.00,,,0.00,VWS V13.01,2015-07-05 18:00:00,
2015-07-05 13:05:00,76.8,35.1,0.00,South,180,5.8,10.1,22,0.00,,,0.00,VWS V13.01,2015-07-05 18:05:00,
2015-07-05 13:10:00,76.8,35.1,0.00,SSW,200,8.7,10.5,22,0.00,,,0.00,VWS V13.01,2015-07-05 18:10:00,
2015-07-05 13:15:00,77.0,36.4,0.00,South,176,7.2,10.1,23,0.00,,,0.00,VWS V13.01,2015-07-05 18:15:00,
2015-07-05 13:20:00,77.2,36.5,0.00,South,181,6.3,8.3,23,0.00,,,0.00,VWS V13.01,2015-07-05 18:20:00,
2015-07-05 13:25:00,77.5,35.7,0.00,South,190,3.6,8.1,22,0.00,,,0.00,VWS V13.01,2015-07-05 18:25:00,
2015-07-05 13:35:00,77.7,35.9,0.00,South,187,5.4,6.3,22,0.00,,,0.00,VWS V13.01,2015-07-05 18:35:00,
2015-07-05 13:40:00,77.7,35.9,0.00,SSW,199,8.7,8.7,22,0.00,,,0.00,VWS V13.01,2015-07-05 18:40:00,
2015-07-05 13:45:00,77.9,36.0,0.00,SSW,192,8.1,13.2,22,0.00,,,0.00,VWS V13.01,2015-07-05 18:45:00,
2015-07-05 13:50:00,78.1,35.0,0.00,South,183,8.3,11.0,21,0.00,,,0.00,VWS V13.01,2015-07-05 18:50:00,
2015-07-05 13:55:00,77.9,34.9,0.00,South,178,6.3,8.7,21,0.00,,,0.00,VWS V13.01,2015-07-05 18:55:00,
2015-07-05 14:00:00,78.1,36.2,0.00,South,183,5.8,7.6,22,0.00,,,0.00,VWS V13.01,2015-07-05 19:00:00,
2015-07-05 14:05:00,78.1,36.2,0.00,South,182,5.4,8.3,22,0.00,,,0.00,VWS V13.01,2015-07-05 19:05:00,
2015-07-05 14:10:00,78.3,36.3,0.00,South,175,5.4,5.8,22,0.00,,,0.00,VWS V13.01,2015-07-05 19:10:00,
2015-07-05 14:15:00,78.6,36.6,0.00,WSW,240,2.2,8.1,22,0.00,,,0.00,VWS V13.01,2015-07-05 19:15:00,
2015-07-05 14:20:00,78.8,35.6,0.00,SSE,168,10.1,11.0,21,0.00,,,0.00,VWS V13.01,2015-07-05 19:20:00,
2015-07-05 14:25:00,78.4,35.3,0.00,SSW,197,6.3,10.5,21,0.00,,,0.00,VWS V13.01,2015-07-05 19:25:00,
2015-07-05 14:30:00,78.4,36.5,0.00,South,186,4.9,4.9,22,0.00,,,0.00,VWS V13.01,2015-07-05 19:30:00,
2015-07-05 14:35:00,78.8,35.6,0.00,South,169,8.7,10.5,21,0.00,,,0.00,VWS V13.01,2015-07-05 19:35:00,
2015-07-05 14:40:00,79.2,35.9,0.00,SSW,209,5.8,7.6,21,0.00,,,0.00,VWS V13.01,2015-07-05 19:40:00,
2015-07-05 14:45:00,79.3,36.0,0.00,South,177,4.0,4.0,21,0.00,,,0.00,VWS V13.01,2015-07-05 19:45:00,
2015-07-05 14:50:00,79.0,35.8,0.00,South,184,12.8,12.8,21,0.00,,,0.00,VWS V13.01,2015-07-05 19:50:00,
2015-07-05 14:55:00,78.8,35.6,0.00,SSE,166,8.1,8.1,21,0.00,,,0.00,VWS V13.01,2015-07-05 19:55:00,
2015-07-05 15:00:00,79.2,35.9,0.00,South,172,4.9,6.3,21,0.00,,,0.00,VWS V13.01,2015-07-05 20:00:00,
2015-07-05 15:05:00,79.2,35.9,0.00,SSE,168,5.8,5.8,21,0.00,,,0.00,VWS V13.01,2015-07-05 20:05:00,
2015-07-05 15:10:00,79.3,36.0,0.00,SW,220,5.4,5.4,21,0.00,,,0.00,VWS V13.01,2015-07-05 20:10:00,
2015-07-05 15:15:00,79.2,35.9,0.00,South,184,8.3,8.7,21,0.00,,,0.00,VWS V13.01,2015-07-05 20:15:00,
2015-07-05 15:20:00,79.0,35.8,0.00,SSE,162,13.2,13.2,21,0.00,,,0.00,VWS V13.01,2015-07-05 20:20:00,
2015-07-05 15:25:00,79.0,35.8,0.00,South,188,8.7,10.1,21,0.00,,,0.00,VWS V13.01,2015-07-05 20:25:00,
2015-07-05 15:30:00,79.0,36.9,0.00,South,188,6.3,6.3,22,0.00,,,0.00,VWS V13.01,2015-07-05 20:30:00,
2015-07-05 15:35:00,79.0,35.8,0.00,South,183,7.6,8.7,21,0.00,,,0.00,VWS V13.01,2015-07-05 20:35:00,
2015-07-05 15:40:00,79.0,36.9,0.00,South,178,5.8,5.8,22,0.00,,,0.00,VWS V13.01,2015-07-05 20:40:00,
2015-07-05 15:45:00,79.2,37.1,0.00,SSW,200,3.1,4.9,22,0.00,,,0.00,VWS V13.01,2015-07-05 20:45:00,
2015-07-05 15:50:00,79.2,37.1,0.00,South,170,11.9,11.9,22,0.00,,,0.00,VWS V13.01,2015-07-05 20:50:00,
2015-07-05 15:55:00,79.0,36.9,0.00,SSE,164,10.1,10.1,22,0.00,,,0.00,VWS V13.01,2015-07-05 20:55:00,
2015-07-05 16:00:00,79.0,36.9,0.00,South,181,5.8,5.8,22,0.00,,,0.00,VWS V13.01,2015-07-05 21:00:00,
2015-07-05 16:05:00,79.2,37.1,0.00,SSW,198,6.3,8.1,22,0.00,,,0.00,VWS V13.01,2015-07-05 21:05:00,
2015-07-05 16:10:00,79.2,37.1,0.00,South,183,5.4,5.4,22,0.00,,,0.00,VWS V13.01,2015-07-05 21:10:00,
2015-07-05 16:15:00,79.2,38.2,0.00,SSW,197,5.4,6.3,23,0.00,,,0.00,VWS V13.01,2015-07-05 21:15:00,
2015-07-05 16:20:00,79.3,37.2,0.00,SSW,209,3.1,3.1,22,0.00,,,0.00,VWS V13.01,2015-07-05 21:20:00,
2015-07-05 16:25:00,79.7,37.5,0.00,South,185,3.6,6.3,22,0.00,,,0.00,VWS V13.01,2015-07-05 21:25:00,
2015-07-05 16:30:00,79.5,37.4,0.00,SSE,155,8.3,10.1,22,0.00,,,0.00,VWS V13.01,2015-07-05 21:30:00,
2015-07-05 16:35:00,79.3,38.4,0.00,South,183,5.4,7.6,23,0.00,,,0.00,VWS V13.01,2015-07-05 21:35:00,
2015-07-05 16:40:00,79.3,37.2,0.00,South,179,10.1,13.2,22,0.00,,,0.00,VWS V13.01,2015-07-05 21:40:00,
2015-07-05 16:45:00,79.3,37.2,0.00,South,177,6.3,6.3,22,0.00,,,0.00,VWS V13.01,2015-07-05 21:45:00,
2015-07-05 16:50:00,79.5,38.5,0.00,South,183,7.6,7.6,23,0.00,,,0.00,VWS V13.01,2015-07-05 21:50:00,
2015-07-05 16:55:00,79.5,38.5,0.00,SSW,212,3.6,5.4,23,0.00,,,0.00,VWS V13.01,2015-07-05 21:55:00,
2015-07-05 17:00:00,79.7,38.7,0.00,South,183,6.3,8.7,23,0.00,,,0.00,VWS V13.01,2015-07-05 22:00:00,
2015-07-05 17:05:00,79.7,38.7,0.00,South,177,6.3,6.3,23,0.00,,,0.00,VWS V13.01,2015-07-05 22:05:00,
2015-07-05 17:10:00,79.5,37.4,0.00,SSW,195,14.5,14.5,22,0.00,,,0.00,VWS V13.01,2015-07-05 22:10:00,
2015-07-05 17:15:00,79.5,38.5,0.00,SSW,192,6.3,11.0,23,0.00,,,0.00,VWS V13.01,2015-07-05 22:15:00,
2015-07-05 17:20:00,79.5,38.5,0.00,South,187,8.1,8.1,23,0.00,,,0.00,VWS V13.01,2015-07-05 22:20:00,
2015-07-05 17:25:00,79.3,40.5,0.00,South,184,8.7,10.1,25,0.00,,,0.00,VWS V13.01,2015-07-05 22:25:00,
2015-07-05 17:30:00,79.2,38.2,0.00,South,189,7.2,7.2,23,0.00,,,0.00,VWS V13.01,2015-07-05 22:30:00,
2015-07-05 17:35:00,79.2,39.3,0.00,South,189,5.8,8.1,24,0.00,,,0.00,VWS V13.01,2015-07-05 22:35:00,
2015-07-05 17:40:00,79.2,39.3,0.00,South,170,4.9,5.8,24,0.00,,,0.00,VWS V13.01,2015-07-05 22:40:00,
2015-07-05 17:45:00,79.2,40.3,0.00,South,177,6.3,6.3,25,0.00,,,0.00,VWS V13.01,2015-07-05 22:45:00,
2015-07-05 17:50:00,79.0,40.2,0.00,South,169,11.0,12.3,25,0.00,,,0.00,VWS V13.01,2015-07-05 22:50:00,
2015-07-05 17:55:00,79.0,40.2,0.00,South,177,6.7,8.1,25,0.00,,,0.00,VWS V13.01,2015-07-05 22:55:00,
2015-07-05 18:00:00,79.0,39.2,0.00,South,186,14.5,14.5,24,0.00,,,0.00,VWS V13.01,2015-07-05 23:00:00,
2015-07-05 18:10:00,79.0,39.2,0.00,South,189,5.8,8.1,24,0.00,,,0.00,VWS V13.01,2015-07-05 23:10:00,
2015-07-05 18:15:00,79.2,38.2,0.00,SSE,165,8.1,10.1,23,0.00,,,0.00,VWS V13.01,2015-07-05 23:15:00,
2015-07-05 18:20:00,79.0,39.2,0.00,South,172,10.1,10.1,24,0.00,,,0.00,VWS V13.01,2015-07-05 23:20:00,
2015-07-05 18:25:00,79.0,39.2,0.00,South,178,7.6,8.3,24,0.00,,,0.00,VWS V13.01,2015-07-05 23:25:00,
2015-07-05 18:30:00,78.8,40.0,0.00,SSE,165,10.1,11.0,25,0.00,,,0.00,VWS V13.01,2015-07-05 23:30:00,
2015-07-05 18:35:00,78.6,40.9,0.00,South,174,10.5,10.5,26,0.00,,,0.00,VWS V13.01,2015-07-05 23:35:00,
2015-07-05 18:40:00,78.4,39.7,0.00,South,191,9.2,9.2,25,0.00,,,0.00,VWS V13.01,2015-07-05 23:40:00,
2015-07-05 18:45:00,78.4,39.7,0.00,SSE,158,7.6,8.3,25,0.00,,,0.00,VWS V13.01,2015-07-05 23:45:00,
2015-07-05 18:50:00,78.4,40.8,0.00,SSW,194,5.4,8.1,26,0.00,,,0.00,VWS V13.01,2015-07-05 23:50:00,
2015-07-05 18:55:00,78.3,40.6,0.00,South,181,7.6,7.6,26,0.00,,,0.00,VWS V13.01,2015-07-05 23:55:00,
2015-07-05 19:00:00,78.3,39.6,0.00,SSE,167,4.0,7.2,25,0.00,,,0.00,VWS V13.01,2015-07-06 00:00:00,
2015-07-05 19:05:00,78.3,40.6,0.00,SSW,193,5.4,8.1,26,0.00,,,0.00,VWS V13.01,2015-07-06 00:05:00,
2015-07-05 19:10:00,78.3,40.6,0.00,South,179,5.4,5.4,26,0.00,,,0.00,VWS V13.01,2015-07-06 00:10:00,
2015-07-05 19:15:00,78.3,41.6,0.00,SSW,196,10.1,10.1,27,0.00,,,0.00,VWS V13.01,2015-07-06 00:15:00,
2015-07-05 19:20:00,78.1,40.4,0.00,South,187,8.1,10.1,26,0.00,,,0.00,VWS V13.01,2015-07-06 00:20:00,
2015-07-05 19:25:00,78.1,40.4,0.00,South,181,8.3,8.3,26,0.00,,,0.00,VWS V13.01,2015-07-06 00:25:00,
2015-07-05 19:30:00,78.1,40.4,0.00,South,184,4.0,7.6,26,0.00,,,0.00,VWS V13.01,2015-07-06 00:30:00,
2015-07-05 19:35:00,78.1,40.4,0.00,South,188,8.1,11.0,26,0.00,,,0.00,VWS V13.01,2015-07-06 00:35:00,
2015-07-05 19:40:00,77.9,40.3,0.00,South,184,5.4,8.7,26,0.00,,,0.00,VWS V13.01,2015-07-06 00:40:00,
2015-07-05 19:45:00,77.9,40.3,0.00,South,170,5.4,6.3,26,0.00,,,0.00,VWS V13.01,2015-07-06 00:45:00,
2015-07-05 19:50:00,77.7,40.1,0.00,South,178,5.4,6.3,26,0.00,,,0.00,VWS V13.01,2015-07-06 00:50:00,
2015-07-05 19:55:00,77.5,40.0,0.00,South,173,13.6,13.6,26,0.00,,,0.00,VWS V13.01,2015-07-06 00:55:00,
2015-07-05 20:00:00,77.5,41.9,0.00,SSW,194,8.7,8.7,28,0.00,,,0.00,VWS V13.01,2015-07-06 01:00:00,
2015-07-05 20:05:00,77.4,39.8,0.00,South,182,7.6,9.2,26,0.00,,,0.00,VWS V13.01,2015-07-06 01:05:00,
2015-07-05 20:10:00,77.2,40.7,0.00,South,188,5.8,8.1,27,0.00,,,0.00,VWS V13.01,2015-07-06 01:10:00,
2015-07-05 20:15:00,77.0,41.4,0.00,South,184,5.4,8.1,28,0.00,,,0.00,VWS V13.01,2015-07-06 01:15:00,
2015-07-05 20:20:00,77.0,41.4,0.00,South,190,7.6,8.1,28,0.00,,,0.00,VWS V13.01,2015-07-06 01:20:00,
2015-07-05 20:25:00,76.8,43.1,0.00,South,190,6.3,12.3,30,0.00,,,0.00,VWS V13.01,2015-07-06 01:25:00,
2015-07-05 20:30:00,76.6,42.9,0.00,South,190,8.3,8.7,30,0.00,,,0.00,VWS V13.01,2015-07-06 01:30:00,
2015-07-05 20:35:00,76.5,42.8,0.00,South,185,8.1,10.5,30,0.00,,,0.00,VWS V13.01,2015-07-06 01:35:00,
2015-07-05 20:40:00,76.3,42.6,0.00,South,189,8.3,12.8,30,0.00,,,0.00,VWS V13.01,2015-07-06 01:40:00,
2015-07-05 20:45:00,76.1,42.5,0.00,South,178,4.0,5.8,30,0.00,,,0.00,VWS V13.01,2015-07-06 01:45:00,
2015-07-05 20:50:00,75.9,43.1,0.00,SSW,198,4.9,5.4,31,0.00,,,0.00,VWS V13.01,2015-07-06 01:50:00,
2015-07-05 20:55:00,75.7,43.0,0.00,SSW,197,3.6,4.0,31,0.00,,,0.00,VWS V13.01,2015-07-06 01:55:00,
2015-07-05 21:00:00,75.7,43.0,0.00,SSW,198,4.0,5.8,31,0.00,,,0.00,VWS V13.01,2015-07-06 02:00:00,
2015-07-05 21:05:00,75.6,42.8,0.00,South,185,6.3,6.3,31,0.00,,,0.00,VWS V13.01,2015-07-06 02:05:00,
2015-07-05 21:10:00,75.4,42.7,0.00,SSE,159,5.8,7.6,31,0.00,,,0.00,VWS V13.01,2015-07-06 02:10:00,
2015-07-05 21:15:00,75.2,42.5,0.00,South,173,5.4,6.3,31,0.00,,,0.00,VWS V13.01,2015-07-06 02:15:00,
2015-07-05 21:20:00,75.2,42.5,0.00,SSW,198,8.3,8.3,31,0.00,,,0.00,VWS V13.01,2015-07-06 02:20:00,
2015-07-05 21:25:00,75.0,43.2,0.00,South,170,5.8,8.7,32,0.00,,,0.00,VWS V13.01,2015-07-06 02:25:00,
2015-07-05 21:36:00,74.7,43.7,0.00,South,172,11.0,11.0,33,0.00,,,0.00,VWS V13.01,2015-07-06 02:36:00,
2015-07-05 21:41:00,74.7,42.9,0.00,South,190,7.6,7.6,32,0.00,,,0.00,VWS V13.01,2015-07-06 02:41:00,
2015-07-05 21:46:00,74.7,42.9,0.00,South,187,5.8,8.7,32,0.00,,,0.00,VWS V13.01,2015-07-06 02:46:00,
2015-07-05 21:51:00,74.7,43.7,0.00,South,183,8.3,8.7,33,0.00,,,0.00,VWS V13.01,2015-07-06 02:51:00,
2015-07-05 21:56:00,74.7,44.5,0.00,SSE,163,10.1,10.1,34,0.00,,,0.00,VWS V13.01,2015-07-06 02:56:00,
2015-07-05 22:01:00,74.5,43.5,0.00,SSW,193,8.3,8.7,33,0.00,,,0.00,VWS V13.01,2015-07-06 03:01:00,
2015-07-05 22:06:00,74.5,43.5,0.00,SSW,205,6.3,10.1,33,0.00,,,0.00,VWS V13.01,2015-07-06 03:06:00,